SL-8 R/B, 9510

Orbit data source: Space-Track

SL-8 R/B, 9510 is space debris in LEO originally from a launch on Fri, 29 Oct 1976 UTC launched from the Plesetsk Missile And Space Complex (PKMTR). Debris objects in space refer to the collection of defunct objects orbiting the Earth. Examples of debris include non-operational satellites, rocket bodies, and fragments generated from explosions, collisions, or faulty payload assembly.

Loading next visibility...
Identifier
9510, 1976-108B
Orbit
LEO
Country
Flag of CISCIS
Related business
Manufacturer
Omsk Av. Zav.
Mission
Spacecraft
Bus & Motor
S3, Unknown motor
Mass
1,434 kg wet, 1,434 kg dry
Launch date (UTC)
1976-10-29 (50 years ago)
Launch vehicle
Unknown
Launch site
Plesetsk Missile And Space Complex (PKMTR)
Object type
Payload
Rocket body
Debris
Shape & HBR
Unknown
Radar Cross Section
Large (>1 m²)

Expand to show TLE details & history
Last TLE update: 2 days ago

TLE from 2 days ago
0 SL-8 R/B
1  9510U 76108B   26171.28465956  .00000056  00000-0  40521-4 0  9996
2  9510  82.9370  95.0701 0025403 328.7600  31.2047 13.77886231494480
Epoch: 2026-06-20T06:49Z
TLE epoch observation values (Epoch: 2026-06-20T06:49:54.585Z)
Latitude
-0.00001°
Longitude
84.09118°
Altitude
958.338 km
Speed
7.381 km/s
True Right ascension
06h 20m 16s
True Declination
0° 00' 00"
Sunlit
Object was in daylight at epoch
Visualization orbit readout
Latitude
Unknown
Longitude
Unknown
Altitude
Unknown
Speed
Unknown
Apparent Right ascension
Unknown
Apparent Declination
Unknown
Sunlit
N/A
Visualization observer readout
Local Sidereal Time
00:39:52
Azimuth
Unknown
Elevation
Unknown
Doppler factor
Unknown
Orbital elements
Apogee altitude
987.201 km
Perigee altitude
949.876 km
Semi-major axis
7,346.676 km
Eccentricity
0.00254
Inclination
82.937°
RAAN
95.0701°
Arg. of periapsis
328.76°
True anomaly
31.35593°
Mean anomaly
31.2047°
Eccentric anomaly
31.28027°
Mean motion
3.44673 °/min
Orbital period
104.45 mins
BSTAR
0.000040521
Loading maneuver chart data...
Computing Atmospheric mass density...
Loading historical data...
Loading historical data...
Loading historical data...
Loading historical data...
Loading historical data...
Loading historical data...
Loading historical data...
Other satellites on launch #108 in the year 1976 (1976-10-29 UTC)

Documentation

Showing up to 5 results
|